STARLINK-4021

operational
NORAD ID: 53149 Int'l Des: 2022-083 Owner: SPXS Country: US Constellation: starlink
LEOCIRCULAR

STARLINK-4021について

説明を読み込み中...

リアルタイム位置

3D地球を読み込み中...

次回通過

高度履歴

Altitude vs Time

uPlot chart will show altitude changes over time

軌道要素

1 53149U 22083T 25251.76293459 .00001343 00000-0 10244-3 0 9992
2 53149 53.2161 261.0286 0001253 90.0516 270.0619 15.08848093173898
Epoch: Sep 8, 2025 • Age: 16 hours

現在のステータス

高度 539.7 km
速度 7.59 km/s
衛星直下点 11.58°N, 124.01°E
打ち上げ日 Jul 17, 2022
運用期間 3.1 years
タイプ internet

技術仕様

分類 Payload
質量 297.00 kg
乾燥質量 275.00 kg
総質量 297.00 kg
長さ 0.20 m
直径 2.80 m
スパン 9.00 m
形状 Box + pan
製造者 SPXS
バスタイプ Starlink
フェーズステータス In Orbit
所有者/国 SPXS/US

大規模コンステレーション

Loading constellations...